Time,TemperatureF,DewpointF,PressureIn,WindDirection,WindDirectionDegrees,WindSpeedMPH,WindSpeedGustMPH,Humidity,HourlyPrecipIn,Conditions,Clouds,dailyrainin,SoftwareType,DateUTC
2013-11-14 00:00:00,32.4,28.0,30.45,NNW,346,1.0,3.0,85,0.00,,,0.01,weatherlink.com 1.10,2013-11-14 05:00:00,
2013-11-14 00:15:00,32.4,28.0,30.45,NNW,346,0.0,3.0,85,0.00,,,0.00,weatherlink.com 1.10,2013-11-14 05:15:00,
2013-11-14 00:30:00,32.2,28.0,30.44,NNW,346,0.0,3.0,85,0.00,,,0.00,weatherlink.com 1.10,2013-11-14 05:30:00,
2013-11-14 00:45:00,31.5,28.0,30.44,NNW,346,1.0,3.0,85,0.00,,,0.00,weatherlink.com 1.10,2013-11-14 05:45:00,
2013-11-14 01:00:00,31.0,27.0,30.44,NW,316,3.0,5.0,84,0.00,,,0.00,weatherlink.com 1.10,2013-11-14 06:00:00,
2013-11-14 01:15:00,31.0,27.0,30.44,NW,316,2.0,4.0,85,0.00,,,0.00,weatherlink.com 1.10,2013-11-14 06:15:00,
2013-11-14 01:30:00,30.7,26.0,30.45,NW,316,1.0,3.0,83,0.00,,,0.00,weatherlink.com 1.10,2013-11-14 06:30:00,
2013-11-14 01:45:00,31.1,27.0,30.45,NW,316,3.0,3.0,85,0.00,,,0.00,weatherlink.com 1.10,2013-11-14 06:45:00,
2013-11-14 02:00:00,31.1,27.0,30.44,NW,316,2.0,4.0,84,0.00,,,0.00,weatherlink.com 1.10,2013-11-14 07:00:00,
2013-11-14 02:15:00,30.9,27.0,30.44,NW,316,2.0,3.0,84,0.00,,,0.00,weatherlink.com 1.10,2013-11-14 07:15:00,
2013-11-14 02:30:00,31.1,27.0,30.44,NW,316,2.0,3.0,84,0.00,,,0.00,weatherlink.com 1.10,2013-11-14 07:30:00,
2013-11-14 02:45:00,30.8,27.0,30.44,NW,316,1.0,3.0,85,0.00,,,0.00,weatherlink.com 1.10,2013-11-14 07:45:00,
2013-11-14 03:00:00,30.6,26.0,30.44,NW,316,2.0,3.0,84,0.00,,,0.00,weatherlink.com 1.10,2013-11-14 08:00:00,
2013-11-14 03:15:00,30.7,26.0,30.43,NW,316,2.0,3.0,84,0.00,,,0.00,weatherlink.com 1.10,2013-11-14 08:15:00,
2013-11-14 03:30:00,30.8,27.0,30.43,NW,316,2.0,3.0,85,0.00,,,0.00,weatherlink.com 1.10,2013-11-14 08:30:00,
2013-11-14 03:45:00,30.8,27.0,30.43,NW,316,1.0,3.0,85,0.00,,,0.00,weatherlink.com 1.10,2013-11-14 08:45:00,
2013-11-14 04:00:00,30.4,26.0,30.43,NW,316,3.0,3.0,84,0.00,,,0.00,weatherlink.com 1.10,2013-11-14 09:00:00,
2013-11-14 04:15:00,30.5,26.0,30.43,NW,316,2.0,3.0,84,0.00,,,0.00,weatherlink.com 1.10,2013-11-14 09:15:00,
2013-11-14 04:30:00,30.2,26.0,30.44,NW,316,2.0,4.0,84,0.00,,,0.00,weatherlink.com 1.10,2013-11-14 09:30:00,
2013-11-14 04:45:00,30.2,26.0,30.43,NW,316,1.0,3.0,85,0.00,,,0.00,weatherlink.com 1.10,2013-11-14 09:45:00,
2013-11-14 05:00:00,30.5,27.0,30.44,NW,316,2.0,3.0,86,0.00,,,0.00,weatherlink.com 1.10,2013-11-14 10:00:00,
2013-11-14 05:15:00,30.5,27.0,30.44,NW,316,2.0,3.0,86,0.00,,,0.00,weatherlink.com 1.10,2013-11-14 10:15:00,
2013-11-14 05:30:00,30.1,26.0,30.44,NW,316,1.0,3.0,85,0.00,,,0.00,weatherlink.com 1.10,2013-11-14 10:30:00,
2013-11-14 05:45:00,29.9,25.0,30.44,NW,316,2.0,3.0,83,0.00,,,0.00,weatherlink.com 1.10,2013-11-14 10:45:00,
2013-11-14 06:00:00,30.1,26.0,30.44,NW,316,1.0,4.0,84,0.00,,,0.00,weatherlink.com 1.10,2013-11-14 11:00:00,
2013-11-14 06:15:00,30.1,26.0,30.45,NW,316,1.0,3.0,84,0.00,,,0.00,weatherlink.com 1.10,2013-11-14 11:15:00,
2013-11-14 06:30:00,30.2,26.0,30.46,NW,316,2.0,4.0,84,0.00,,,0.00,weatherlink.com 1.10,2013-11-14 11:30:00,
2013-11-14 06:45:00,30.1,26.0,30.46,NW,316,1.0,4.0,84,0.00,,,0.00,weatherlink.com 1.10,2013-11-14 11:45:00,
2013-11-14 07:00:00,30.1,26.0,30.46,NW,316,2.0,3.0,84,0.00,,,0.00,weatherlink.com 1.10,2013-11-14 12:00:00,
2013-11-14 07:15:00,30.1,25.0,30.47,NW,316,2.0,4.0,82,0.00,,,0.00,weatherlink.com 1.10,2013-11-14 12:15:00,
2013-11-14 07:31:00,30.4,25.0,30.47,NW,316,1.0,3.0,80,0.00,,,0.00,weatherlink.com 1.10,2013-11-14 12:31:00,
2013-11-14 07:46:00,31.4,26.0,30.48,NW,316,2.0,3.0,80,0.00,,,0.00,weatherlink.com 1.10,2013-11-14 12:46:00,
2013-11-14 08:01:00,32.6,26.0,30.48,NW,316,1.0,3.0,78,0.00,,,0.00,weatherlink.com 1.10,2013-11-14 13:01:00,
2013-11-14 08:16:00,33.7,27.0,30.48,NW,316,0.0,2.0,77,0.00,,,0.00,weatherlink.com 1.10,2013-11-14 13:16:00,
2013-11-14 08:31:00,35.3,29.0,30.49,NW,316,1.0,2.0,78,0.00,,,0.00,weatherlink.com 1.10,2013-11-14 13:31:00,
2013-11-14 08:46:00,37.4,30.0,30.49,NW,315,0.0,3.0,75,0.00,,,0.00,weatherlink.com 1.10,2013-11-14 13:46:00,
2013-11-14 09:01:00,39.1,31.0,30.49,NW,316,0.0,3.0,72,0.00,,,0.00,weatherlink.com 1.10,2013-11-14 14:01:00,
2013-11-14 09:16:00,40.2,31.0,30.49,NW,316,0.0,3.0,69,0.00,,,0.00,weatherlink.com 1.10,2013-11-14 14:16:00,
2013-11-14 09:31:00,43.1,31.0,30.48,NW,319,2.0,4.0,62,0.00,,,0.00,weatherlink.com 1.10,2013-11-14 14:31:00,
2013-11-14 09:46:00,45.0,29.0,30.49,NW,325,2.0,4.0,53,0.00,,,0.00,weatherlink.com 1.10,2013-11-14 14:46:00,
2013-11-14 10:01:00,46.0,28.0,30.49,NW,325,0.0,2.0,49,0.00,,,0.00,weatherlink.com 1.10,2013-11-14 15:01:00,
2013-11-14 10:16:00,46.3,27.0,30.49,NW,325,0.0,2.0,48,0.00,,,0.00,weatherlink.com 1.10,2013-11-14 15:16:00,
2013-11-14 10:31:00,47.3,27.0,30.48,NW,325,0.0,1.0,46,0.00,,,0.00,weatherlink.com 1.10,2013-11-14 15:31:00,
2013-11-14 10:46:00,48.1,28.0,30.47,NW,325,2.0,3.0,45,0.00,,,0.00,weatherlink.com 1.10,2013-11-14 15:46:00,
2013-11-14 11:01:00,48.7,27.0,30.47,NW,325,0.0,3.0,44,0.00,,,0.00,weatherlink.com 1.10,2013-11-14 16:01:00,
2013-11-14 11:16:00,50.1,29.0,30.46,NW,325,2.0,3.0,44,0.00,,,0.00,weatherlink.com 1.10,2013-11-14 16:16:00,
2013-11-14 11:31:00,50.5,30.0,30.46,NE,51,0.0,4.0,46,0.00,,,0.00,weatherlink.com 1.10,2013-11-14 16:31:00,
2013-11-14 11:46:00,50.5,29.0,30.45,NE,51,0.0,3.0,44,0.00,,,0.00,weatherlink.com 1.10,2013-11-14 16:46:00,
2013-11-14 12:01:00,51.8,30.0,30.44,NE,51,2.0,3.0,44,0.00,,,0.00,weatherlink.com 1.10,2013-11-14 17:01:00,
2013-11-14 12:16:00,52.2,32.0,30.43,NE,52,0.0,3.0,46,0.00,,,0.00,weatherlink.com 1.10,2013-11-14 17:16:00,
2013-11-14 12:31:00,52.6,33.0,30.43,NE,52,0.0,4.0,47,0.00,,,0.00,weatherlink.com 1.10,2013-11-14 17:31:00,
2013-11-14 12:46:00,52.5,32.0,30.42,NE,52,0.0,3.0,45,0.00,,,0.00,weatherlink.com 1.10,2013-11-14 17:46:00,
2013-11-14 13:01:00,52.3,32.0,30.41,NE,52,1.0,3.0,46,0.00,,,0.00,weatherlink.com 1.10,2013-11-14 18:01:00,
2013-11-14 13:16:00,52.4,31.0,30.41,NE,51,0.0,4.0,44,0.00,,,0.00,weatherlink.com 1.10,2013-11-14 18:16:00,
2013-11-14 13:31:00,52.4,29.0,30.40,NE,51,1.0,3.0,40,0.00,,,0.00,weatherlink.com 1.10,2013-11-14 18:31:00,
2013-11-14 13:47:00,53.1,30.0,30.40,NE,52,3.0,4.0,42,0.00,,,0.00,weatherlink.com 1.10,2013-11-14 18:47:00,
2013-11-14 14:02:00,53.7,31.0,30.39,NE,52,0.0,4.0,42,0.00,,,0.00,weatherlink.com 1.10,2013-11-14 19:02:00,
2013-11-14 14:17:00,54.5,34.0,30.39,ENE,69,4.0,7.0,47,0.00,,,0.00,weatherlink.com 1.10,2013-11-14 19:17:00,
2013-11-14 14:32:00,54.5,35.0,30.39,ENE,70,4.0,7.0,49,0.00,,,0.00,weatherlink.com 1.10,2013-11-14 19:32:00,
2013-11-14 14:47:00,54.4,35.0,30.38,SE,146,1.0,5.0,48,0.00,,,0.00,weatherlink.com 1.10,2013-11-14 19:47:00,
2013-11-14 15:02:00,54.2,36.0,30.38,SSE,152,1.0,4.0,50,0.00,,,0.00,weatherlink.com 1.10,2013-11-14 20:02:00,
2013-11-14 15:17:00,53.9,37.0,30.38,SSE,151,3.0,5.0,53,0.00,,,0.00,weatherlink.com 1.10,2013-11-14 20:17:00,
2013-11-14 15:32:00,53.7,37.0,30.38,SSE,152,3.0,5.0,54,0.00,,,0.00,weatherlink.com 1.10,2013-11-14 20:32:00,
2013-11-14 15:47:00,53.5,37.0,30.37,SSE,152,0.0,4.0,55,0.00,,,0.00,weatherlink.com 1.10,2013-11-14 20:47:00,
2013-11-14 16:02:00,53.0,39.0,30.37,SSE,152,0.0,4.0,59,0.00,,,0.00,weatherlink.com 1.10,2013-11-14 21:02:00,
2013-11-14 16:17:00,52.3,39.0,30.37,SSE,151,2.0,5.0,60,0.00,,,0.00,weatherlink.com 1.10,2013-11-14 21:17:00,
2013-11-14 16:32:00,51.8,39.0,30.37,SSE,151,0.0,2.0,63,0.00,,,0.00,weatherlink.com 1.10,2013-11-14 21:32:00,
2013-11-14 16:47:00,50.7,40.0,30.37,SSE,151,0.0,3.0,68,0.00,,,0.00,weatherlink.com 1.10,2013-11-14 21:47:00,
2013-11-14 17:02:00,49.5,40.0,30.37,SSE,151,2.0,3.0,71,0.00,,,0.00,weatherlink.com 1.10,2013-11-14 22:02:00,
2013-11-14 17:17:00,48.5,40.0,30.37,SSE,151,0.0,1.0,72,0.00,,,0.00,weatherlink.com 1.10,2013-11-14 22:17:00,
2013-11-14 17:32:00,47.8,40.0,30.37,SSE,151,0.0,0.0,75,0.00,,,0.00,weatherlink.com 1.10,2013-11-14 22:32:00,
2013-11-14 17:47:00,46.7,39.0,30.38,SSE,151,0.0,0.0,75,0.00,,,0.00,weatherlink.com 1.10,2013-11-14 22:47:00,
2013-11-14 18:02:00,46.2,40.0,30.38,SSE,151,0.0,0.0,78,0.00,,,0.00,weatherlink.com 1.10,2013-11-14 23:02:00,
2013-11-14 18:17:00,45.2,38.0,30.38,SSE,151,0.0,0.0,77,0.00,,,0.00,weatherlink.com 1.10,2013-11-14 23:17:00,
2013-11-14 18:32:00,44.7,39.0,30.38,SSE,151,0.0,0.0,81,0.00,,,0.00,weatherlink.com 1.10,2013-11-14 23:32:00,
2013-11-14 18:47:00,44.2,39.0,30.38,SSE,151,0.0,0.0,82,0.00,,,0.00,weatherlink.com 1.10,2013-11-14 23:47:00,
2013-11-14 19:02:00,43.2,38.0,30.38,SSE,151,0.0,0.0,81,0.00,,,0.00,weatherlink.com 1.10,2013-11-15 00:02:00,
2013-11-14 19:17:00,42.6,37.0,30.37,SSE,151,0.0,0.0,80,0.00,,,0.00,weatherlink.com 1.10,2013-11-15 00:17:00,
2013-11-14 19:32:00,42.5,38.0,30.37,SSE,151,0.0,0.0,83,0.00,,,0.00,weatherlink.com 1.10,2013-11-15 00:32:00,
2013-11-14 19:47:00,42.1,38.0,30.37,SSE,151,1.0,2.0,84,0.00,,,0.00,weatherlink.com 1.10,2013-11-15 00:47:00,
2013-11-14 20:02:00,41.5,37.0,30.37,SSE,151,0.0,1.0,84,0.00,,,0.00,weatherlink.com 1.10,2013-11-15 01:02:00,
2013-11-14 20:17:00,41.0,36.0,30.36,SSE,151,0.0,0.0,83,0.00,,,0.00,weatherlink.com 1.10,2013-11-15 01:17:00,
2013-11-14 20:32:00,40.9,36.0,30.36,SSE,151,0.0,0.0,83,0.00,,,0.00,weatherlink.com 1.10,2013-11-15 01:32:00,
2013-11-14 20:47:00,40.8,36.0,30.36,SSE,151,0.0,0.0,84,0.00,,,0.00,weatherlink.com 1.10,2013-11-15 01:47:00,
2013-11-14 21:02:00,40.5,36.0,30.36,SSE,151,0.0,0.0,84,0.00,,,0.00,weatherlink.com 1.10,2013-11-15 02:02:00,
2013-11-14 21:17:00,40.2,36.0,30.36,SSE,151,0.0,0.0,84,0.00,,,0.00,weatherlink.com 1.10,2013-11-15 02:17:00,
2013-11-14 21:32:00,39.8,35.0,30.36,SSE,151,0.0,0.0,84,0.00,,,0.00,weatherlink.com 1.10,2013-11-15 02:32:00,
2013-11-14 21:47:00,39.6,35.0,30.36,SSE,151,0.0,0.0,84,0.00,,,0.00,weatherlink.com 1.10,2013-11-15 02:47:00,
2013-11-14 22:02:00,39.6,36.0,30.36,SSE,151,0.0,0.0,85,0.00,,,0.00,weatherlink.com 1.10,2013-11-15 03:02:00,
2013-11-14 22:17:00,39.5,35.0,30.36,SSE,151,0.0,0.0,85,0.00,,,0.00,weatherlink.com 1.10,2013-11-15 03:17:00,
2013-11-14 22:32:00,39.5,35.0,30.35,SSE,151,0.0,0.0,85,0.00,,,0.00,weatherlink.com 1.10,2013-11-15 03:32:00,
2013-11-14 22:47:00,39.7,36.0,30.35,SSE,151,0.0,3.0,85,0.00,,,0.00,weatherlink.com 1.10,2013-11-15 03:47:00,
2013-11-14 23:02:00,40.0,36.0,30.34,SSE,151,0.0,0.0,85,0.00,,,0.00,weatherlink.com 1.10,2013-11-15 04:02:00,
2013-11-14 23:17:00,40.3,37.0,30.34,SSE,151,0.0,0.0,86,0.00,,,0.00,weatherlink.com 1.10,2013-11-15 04:17:00,
2013-11-14 23:32:00,40.3,37.0,30.34,SSE,151,0.0,0.0,86,0.00,,,0.00,weatherlink.com 1.10,2013-11-15 04:32:00,
2013-11-14 23:47:00,40.2,36.0,30.35,SSE,151,0.0,0.0,86,0.00,,,0.00,weatherlink.com 1.10,2013-11-15 04:47:00,